Location: Newark
(52.2090°N, 4.1550°W)
Time: 11:36:25
(UTC+00:00)

Explorer 7 - Pass Details

Date: 23 September 2019
Orbit: 485 x 680 km, 50.3° (Epoch: 19 October)

Event Time Altitude Azimuth Distance (km) Brightness Sun altitude
Rises 00:21:01 0° 259° (WSW) 2,867 - -37.6°
Reaches altitude 10° 00:23:15 10° 257° (WSW) 1,993 - -37.6°
Maximum altitude 00:27:50 70° 174° (S) 693 - -37.5°
Drops below altitude 10° 00:32:39 10° 92° (E) 2,092 - -37.4°
Sets 00:35:04 0° 90° (E) 3,021 - -37.4°
